PST,Max TemperatureF,Mean TemperatureF,Min TemperatureF,Max Dew PointF,MeanDew PointF,Min DewpointF,Max Humidity, Mean Humidity, Min Humidity, Max Sea Level PressureIn, Mean Sea Level PressureIn, Min Sea Level PressureIn, Max VisibilityMiles, Mean VisibilityMiles, Min VisibilityMiles, Max Wind SpeedMPH, Mean Wind SpeedMPH, Max Gust SpeedMPH,PrecipitationIn, CloudCover, Events, WindDirDegrees
2013-11-1,61,44,28,40,34,27,96,81,46,30.34,30.17,30.03,10,7,0,7,4,,0.00,1,Fog,178
2013-11-2,64,46,28,37,32,28,100,73,29,30.09,29.96,29.80,10,7,1,10,4,,0.00,3,,213
2013-11-3,48,44,39,34,22,12,68,46,24,30.09,29.94,29.89,10,10,10,14,9,,0.00,7,,5
2013-11-4,48,38,24,23,19,15,77,48,27,30.09,29.98,29.90,10,10,10,13,6,,0.00,2,,12
2013-11-5,53,37,21,24,20,16,82,55,23,30.21,30.15,30.09,10,10,10,8,5,,0.00,1,,147
2013-11-6,59,42,25,28,23,19,81,53,22,30.28,30.22,30.17,10,10,10,9,3,,0.00,4,,162
2013-11-7,60,48,35,31,28,24,73,52,30,30.24,30.07,29.98,10,10,10,12,5,,0.00,4,,109
2013-11-8,66,49,32,30,25,22,72,48,19,30.03,29.98,29.90,10,10,10,8,4,,0.00,3,,149
2013-11-9,64,47,30,29,26,23,79,54,23,30.05,30.02,29.98,10,10,10,8,4,,0.00,0,,180
2013-11-10,64,46,28,28,25,19,81,51,18,30.21,30.08,30.04,10,10,10,9,3,,0.00,1,,81
2013-11-11,64,45,26,28,23,21,81,50,21,30.18,30.13,30.09,10,10,10,10,3,,0.00,3,,182
2013-11-12,59,48,36,29,26,24,67,51,26,30.27,30.21,30.17,10,10,10,10,4,,0.00,4,,168
2013-11-13,64,46,28,29,26,21,75,50,25,30.24,30.19,30.14,10,10,10,9,6,,0.00,1,,125
2013-11-14,64,45,26,30,25,20,78,48,22,30.13,29.93,29.76,10,10,10,14,4,,0.00,4,,205
2013-11-15,46,40,33,34,27,21,87,62,40,29.90,29.78,29.68,10,10,10,15,9,24,0.00,5,Rain,35
2013-11-16,57,46,34,27,25,22,67,47,26,29.82,29.68,29.62,10,10,10,16,8,,0.00,3,,190
2013-11-17,62,44,27,29,24,20,78,53,24,30.05,29.94,29.83,10,10,10,10,5,,0.00,1,,181
2013-11-18,57,41,25,30,26,19,81,56,34,30.00,29.94,29.90,10,10,10,8,4,,0.00,5,,72
2013-11-19,59,50,42,43,32,29,86,53,35,29.99,29.89,29.84,10,10,8,12,4,,0.05,7,Rain,179
2013-11-20,57,47,34,44,41,32,93,80,49,29.91,29.81,29.75,10,8,2,16,9,,0.85,7,Rain-Snow,37
2013-11-21,34,31,28,32,27,19,96,85,61,30.19,30.06,29.86,10,5,1,21,13,28,0.01,7,Snow,355
2013-11-22,39,31,23,25,21,15,88,69,45,30.33,30.17,30.11,10,10,10,10,5,,0.00,2,,256
2013-11-23,45,35,25,27,22,15,85,67,34,30.24,30.09,30.04,10,10,10,8,3,,0.00,1,,186
2013-11-24,46,36,25,27,24,20,89,72,35,30.27,30.15,30.08,10,10,10,6,2,,0.00,0,,51
2013-11-25,48,34,21,30,25,20,92,77,44,30.39,30.26,30.22,10,9,6,8,2,,0.00,0,,105
2013-11-26,46,35,24,30,27,21,96,78,46,30.35,30.17,30.06,10,9,6,8,2,,0.00,3,,25
2013-11-27,48,37,26,33,29,23,92,79,54,30.11,29.97,29.90,10,9,6,8,1,,0.00,4,,14
2013-11-28,48,37,26,35,29,24,96,82,52,30.07,30.00,29.92,10,9,4,9,2,,0.00,1,,293
2013-11-29,51,38,26,34,30,23,92,80,50,30.19,30.14,30.07,10,9,7,8,4,,0.00,1,,177
2013-11-30,51,38,26,36,30,23,92,81,50,30.36,30.21,30.16,10,9,6,8,3,,0.00,1,,75